DELTA 1 DEB, 27720

Orbit data source: Space-Track

DELTA 1 DEB, 27720 is space debris in SSO originally from a launch on Fri, 22 Jan 1965 UTC launched from the Air Force Eastern Test Range (AFETR). Debris objects in space refer to the collection of defunct objects orbiting the Earth. Examples of debris include non-operational satellites, rocket bodies, and fragments generated from explosions, collisions, or faulty payload assembly.

Loading next visibility...
Identifier
27720, 1965-004E
Orbit
SSO
Last TLE update
1 day ago
Origin
Manufacturer
Unknown
Mission
Spacecraft
Bus & Motor
Unknown
Mass
Unknown
Launch date (UTC)
1965-01-22 (60 years ago)
Launch vehicle
Unknown
Launch site
Air Force Eastern Test Range (AFETR)
Object type
Payload
Rocket body
Debris
Shape & HBR
Unknown
Radar Cross Section
Small (<0.1 m²)

Expand to show TLE details & history

TLE from 1 day ago
0 DELTA 1 DEB
1 27720U 65004E   25127.95742332  .00000402  00000-0  51913-3 0  9993
2 27720  96.4900 205.2198 1168734 159.1581 206.1523 12.09182961466234
Epoch: 2025-05-07T22:58Z
Definitive object data (Epoch: 2025-05-07T22:58:41.374Z)
Latitude
-0.00003°
Longitude
-5.48741°
Altitude
2,502.393 km
Speed
6.331 km/s
True Right ascension
13h 40m 52s
True Declination
0° 00' 00"
Sunlit
Object was in full shadow at TLE epoch
Visualization TLE readout
Latitude
71.73275°
Longitude
-24.84637°
Altitude
1,438.827 km
Speed
7.243 km/s
Apparent Right ascension
05h 15m 17s
Apparent Declination
42° 55' 56"
Sunlit
Object is in daylight
Visualization observer readout
Local Sidereal Time
15:20:42
Azimuth
339.418° N
Elevation
-3.196°
Doppler factor
1
Orbital elements
Apogee altitude
2,574.109 km
Perigee altitude
700.523 km
Semi-major axis
8,015.453 km
Eccentricity
0.1168734
Inclination
96.49°
RAAN
205.2198°
Arg. of periapsis
159.1581°
True anomaly
200.94333°
Mean anomaly
206.1523°
Eccentric anomaly
203.48387°
Mean motion
3.02448 °/min
BSTAR
0.00051913
Orbital period
119.03 mins
Loading maneuver chart data...
Loading SW <> Apogee altitude chart data...
Loading historical data...
Loading historical data...
Loading historical data...
Loading historical data...
Loading historical data...
Loading historical data...
Loading historical data...
Other satellites on launch #4 in the year 1965 (1965-01-22 UTC)

DELTA 1 DEB Visibility forecast

Observer location: undefined°, undefined°

Span
Click to sort rows by Start time (UTC) header in descending order
Start Az.
Max El. time (UTC)
Max El. Az.
Max El.
End time (UTC)
End Az.
8 mins2025-05-09 17:22:44.548Z26.245° NE2025-05-09 17:26:44.548Z101.723° ESE35.32°2025-05-09 17:30:44.548Z168.55° S
10 mins2025-05-10 02:49:44.548Z91.561° ESE2025-05-10 02:54:44.548Z62.727° ENE16.784°2025-05-10 02:59:44.548Z28.109° NE
19 mins2025-05-10 04:40:44.548Z156.541° SSE2025-05-10 04:51:44.548Z74.258° E43.909°2025-05-10 04:59:44.548Z354.524° N
16 mins2025-05-10 06:40:44.548Z217.294° SW2025-05-10 06:49:44.548Z270.899° WNW25.92°2025-05-10 06:56:44.548Z321.738° NNW
|